Regional Weather Roundup
Issued by NWS Albany, NY

Home | Current Version | Previous Version | Text Only | Print | Product List | Glossary On
Versions: 1 2 3 4 5 6 7 8 9 10 11 12 13 14 15 16 17 18 19 20 21 22 23 24 25 26 27 28 29 30 31 32 33 34 35 36 37 38 39 40 41 42 43 44 45 46 47 48 49 50
000
ASUS41 KALY 211110
RWRALY

NEW YORK STATE HOURLY WEATHER ROUNDUP
NATIONAL WEATHER SERVICE ALBANY NY
700 AM EDT THU AUG 21 2014

NOTE: "FAIR" INDICATES FEW OR NO CLOUDS BELOW 12,000 FEET WITH NO
SIGNIFICANT WEATHER AND/OR NO OBSTRUCTIONS TO VISIBILITY.

NYZ032-033-038>043-046>054-057>066-NYZ062>081-211200-
EAST


CITY           SKY/WX    TMP DP  RH WIND       PRES   REMARKS
ALBANY         RAIN      65  62  90 CALM      30.03R FOG
GLENS FALLS    RAIN      65  63  93 CALM      30.04S FOG
POUGHKEEPSIE   CLOUDY    65  63  93 CALM      30.04R
NEWBURGH       MOCLDY    64  64 100 CALM      30.06R
MONTGOMERY     MOCLDY    64  62  93 CALM      30.05R
WHITE PLAINS   MOCLDY    66  62  87 CALM      30.05R
ISLIP          MOCLDY    67  62  84 CALM      30.04R
NEW YORK CITY  CLOUDY    70  61  73 E3        30.03S
CENTRAL PARK   CLOUDY    67  63  87 CALM      30.07R
$$

NYZ005>009-017-018-044>046-055-056-211200-
CENTRAL


CITY           SKY/WX    TMP DP  RH WIND       PRES   REMARKS
FULTON         MOCLDY    68  66  93 CALM      29.97R FOG
SYRACUSE       CLOUDY    65  65 100 E5        29.97R
ROME           CLOUDY    67  67 100 E6        30.00R
ELMIRA         FOG       64  64 100 CALM      30.01R VSB<1/4
BINGHAMTON     CLOUDY    66  64  93 S5        30.04R
MONTICELLO     CLOUDY    63  63 100 E3        30.08S
$$

NYZ026>034-041>043-211200-
NORTH


CITY           SKY/WX    TMP DP  RH WIND       PRES   REMARKS
WATERTOWN      CLOUDY    67  63  87 CALM      29.96R FOG
FORT DRUM      NOT AVBL
MASSENA        CLOUDY    66  65  96 NE9       30.00R
SARANAC LAKE   CLOUDY    62  61  96 CALM      30.04R FOG
PLATTSBURGH    LGT RAIN  67  65  93 SE9       30.02R
$$

NYZ001>004-010>016-019>021-211200-
WEST


CITY           SKY/WX    TMP DP  RH WIND       PRES   REMARKS
NIAGARA FALLS  PTCLDY    68  66  93 SW7       29.96R
BUFFALO        CLOUDY    70  65  84 SW8       29.97R
DUNKIRK        PTCLDY    68  65  90 S8        29.98R
JAMESTOWN      CLOUDY    63  59  88 SW7       30.03R
WELLSVILLE     PTCLDY    65  62  90 SW6       30.06R
ROCHESTER      MOCLDY    66  64  93 SW5       29.96R
PENN YAN       PTCLDY    66  64  93 SE5       29.99R FOG
$$

             KEY
       WCI = WIND CHILL INDEX
       VSB = VISIBILITY
       HX  = HEAT INDEX
$$


USA.gov is the U.S. government's official web portal to all federal, state and local government web resources and services.